MIDAS 5 DEB, 19981

Orbit data source: Space-Track

MIDAS 5 DEB, 19981 is space debris in LEO originally from a launch on Fri, 26 Oct 1962 UTC launched from the Air Force Western Test Range (AFWTR). Debris objects in space refer to the collection of defunct objects orbiting the Earth. Examples of debris include non-operational satellites, rocket bodies, and fragments generated from explosions, collisions, or faulty payload assembly.

Loading next visibility...
Identifier
19981, 1962-010H
Orbit
LEO
Country
Flag of USUS
Related business
Manufacturer
MIT-LL
Mission
Spacecraft
Bus & Motor
WESTFORD DRAG, Unknown motor
Mass
~1 kg wet, ~1 kg dry
Launch date (UTC)
1962-10-26 (63 years ago)
Launch vehicle
Unknown
Launch site
Air Force Western Test Range (AFWTR)
Object type
Payload
Rocket body
Debris
Shape & HBR
Unknown
Radar Cross Section
Medium (>0.1 m² and <1 m²)

Expand to show TLE details & history
Last TLE update: 3 days ago

TLE from 3 days ago
0 MIDAS 5 DEB
1 19981U 62010H   25240.25868461  .00000111  00000-0  21471-1 0  9999
2 19981  86.6915 357.5471 0326166 292.5762  64.0940  9.42968069277905
Epoch: 2025-08-28T06:12Z
TLE epoch observation values (Epoch: 2025-08-28T06:12:30.35Z)
Latitude
-0.00005°
Longitude
-72.30362°
Altitude
2,961.529 km
Speed
6.577 km/s
True Right ascension
23h 50m 11s
True Declination
0° 00' 00"
Sunlit
Object was in full shadow at epoch
Visualization orbit readout
Latitude
Unknown
Longitude
Unknown
Altitude
Unknown
Speed
Unknown
Apparent Right ascension
Unknown
Apparent Declination
Unknown
Sunlit
N/A
Visualization observer readout
Local Sidereal Time
19:20:49
Azimuth
Unknown
Elevation
Unknown
Doppler factor
Unknown
Orbital elements
Apogee altitude
3,392.076 km
Perigee altitude
2,774.865 km
Semi-major axis
9,461.607 km
Eccentricity
0.03262
Inclination
86.6915°
RAAN
357.5471°
Arg. of periapsis
292.5762°
True anomaly
67.51489°
Mean anomaly
64.094°
Eccentric anomaly
65.79854°
Mean motion
2.35828 °/min
Orbital period
152.65 mins
BSTAR
0.021471
Loading maneuver chart data...
Computing Atmospheric mass density...
Loading historical data...
Loading historical data...
Loading historical data...
Loading historical data...
Loading historical data...
Loading historical data...
Loading historical data...

Documentation

Showing up to 5 results
|